This demonstration page uses our WeatherBlox Daily Observations layout. Learn more.

Left ArrowRight Arrow

34.16533, -84.80231

Hourly Observations for February 10, 2015

Temp ( °F °C ) Dew Point ( °F °C ) Humidity (%) Winds ( mph kmh ) Pressure ( in mb ) Visibility ( mi km ) Precip ( " mm )
12:43 am 00:43 Cloudy 41 5 35 1.7 79 79 VRB 5 7 29.94 1014 10 16 0.00 0.00
12:53 am 00:53 Cloudy 41 5 35 1.7 79 79 VRB 7 11 29.90 1013 10 16 0.00 0.00
1:53 am 01:53 Cloudy 40 4.4 34 1.1 79 79 VRB 7 11 29.90 1012 10 16 0.00 0.00
2:53 am 02:53 Cloudy 39 3.9 32 0 76 76 NNW 9 15 29.90 1013 10 16 0.00 0.00
3:53 am 03:53 Cloudy 38 3.3 32 0 79 79 undefined N/A 29.90 1012 10 16 0.00 0.00
4:53 am 04:53 Cloudy 38 3.3 31 -0.6 76 76 NW 10 17 29.90 1013 10 16 0.00 0.00
5:28 am 05:28 Cloudy 38 3.3 31 -0.6 76 76 NNW 10 17 29.94 1014 10 16 0.00 0.00
5:53 am 05:53 Cloudy 38 3.3 31 -0.6 76 76 VRB 7 11 29.91 1013 10 16 0.00 0.00
6:53 am 06:53 Cloudy 37 2.8 30 -1.1 76 76 VRB 7 11 29.93 1014 10 16 0.00 0.00
7:53 am 07:53 Cloudy 37 2.8 30 -1.1 76 76 NNW 9 15 29.96 1015 10 16 0.00 0.00
8:53 am 08:53 Cloudy 37 2.8 30 -1.1 76 76 NNW 7 11 29.97 1015 10 16 0.00 0.00
9:53 am 09:53 Cloudy 38 3.3 30 -1.1 73 73 N 9 15 29.99 1016 10 16 0.00 0.00
10:53 am 10:53 Mostly Cloudy 41 5 30 -1.1 65 65 N 12 19 29.99 1016 10 16 0.00 0.00
11:50 am 11:50 Partly Cloudy 45 7 30 -1 57 57 N 9 15 30.03 1017 10 16 0.00 0.00
11:53 am 11:53 Partly Cloudy 43 6.1 31 -0.6 63 63 NNW 8 13 29.99 1016 10 16 0.00 0.00
12:53 pm 12:53 Sunny 46 7.8 31 -0.6 56 56 N 12 19 29.98 1015 10 16 0.00 0.00
1:53 pm 13:53 Sunny 48 8.9 32 0 54 54 N 10 17 29.96 1015 10 16 0.00 0.00
2:53 pm 14:53 Sunny 49 9.4 32 0 52 52 VRB 5 7 29.95 1014 10 16 0.00 0.00
3:53 pm 15:53 Sunny 50 10 32 0 50 50 VRB 7 11 29.95 1014 10 16 0.00 0.00
4:53 pm 16:53 Sunny 50 10 32 0 50 50 N 12 19 29.95 1014 10 16 0.00 0.00
5:53 pm 17:53 Sunny 47 8.3 31 -0.6 54 54 N 8 13 29.96 1015 10 16 0.00 0.00
6:53 pm 18:53 Clear 44 6.7 31 -0.6 60 60 NW 6 9 29.98 1015 10 16 0.00 0.00
7:53 pm 19:53 Clear 42 5.6 31 -0.6 65 65 Calm 29.98 1015 10 16 0.00 0.00
8:53 pm 20:53 Clear 40 4.4 30 -1.1 68 68 VRB 5 7 30.00 1016 10 16 0.00 0.00
9:53 pm 21:53 Clear 38 3.3 29 -1.7 70 70 VRB 3 6 30.01 1016 10 16 0.00 0.00
10:53 pm 22:53 Clear 36 2.2 29 -1.7 76 76 Calm 30.00 1016 10 16 0.00 0.00
11:53 pm 23:53 Clear 34 1.1 28 -2.2 79 79 Calm 30.00 1016 10 16 0.00 0.00

Powered by AerisWeather